Météo par heure à Abartzuza

Ce jour, 27 Novembre, Vendredi

Heure Température Précipitation Vent Pression Humidité
00:00 +9°C° 0 mm 2 m/s 708 mmHg 90%
01:00 +9°C° 0 mm 2 m/s 708 mmHg 91%
02:00 +9°C° 0 mm 2 m/s 708 mmHg 92%
03:00 +9°C° 0 mm 2 m/s 707 mmHg 93%
04:00 +8°C° 0 mm 2 m/s 707 mmHg 93%
05:00 +8°C° 0 mm 2 m/s 707 mmHg 94%
06:00 +8°C° 0 mm 1 m/s 707 mmHg 94%
07:00 +8°C° 0 mm 2 m/s 707 mmHg 91%
08:00 +8°C° 0 mm 2 m/s 707 mmHg 89%
09:00 +9°C° 0 mm 3 m/s 707 mmHg 86%
10:00 +10°C° 0 mm 2 m/s 707 mmHg 80%
11:00 +12°C° 0 mm 2 m/s 707 mmHg 73%
12:00 +13°C° 0 mm 2 m/s 707 mmHg 67%
13:00 +13°C° 0 mm 2 m/s 706 mmHg 65%
14:00 +14°C° 0 mm 2 m/s 706 mmHg 63%
15:00 +14°C° 0 mm 1 m/s 705 mmHg 62%
16:00 +13°C° 0 mm 1 m/s 705 mmHg 68%
17:00 +11°C° 0 mm 1 m/s 705 mmHg 73%
18:00 +9°C° 0 mm 0 m/s 705 mmHg 79%
19:00 +10°C° 0.1 mm 1 m/s 705 mmHg 80%
20:00 +10°C° 0.1 mm 1 m/s 705 mmHg 81%
21:00 +10°C° 0.1 mm 1 m/s 705 mmHg 81%
22:00 +10°C° 0.1 mm 1 m/s 705 mmHg 84%
23:00 +9°C° 0.1 mm 1 m/s 704 mmHg 86%

Demain, 28 Novembre, Samedi

Heure Température Précipitation Vent Pression Humidité
00:00 +9°C° 0.1 mm 1 m/s 704 mmHg 89%
01:00 +9°C° 0 mm 1 m/s 704 mmHg 90%
02:00 +8°C° 0 mm 1 m/s 704 mmHg 90%
03:00 +8°C° 0 mm 1 m/s 703 mmHg 91%
04:00 +8°C° 0 mm 1 m/s 703 mmHg 91%
05:00 +8°C° 0 mm 1 m/s 703 mmHg 91%
06:00 +8°C° 0 mm 1 m/s 703 mmHg 91%
07:00 +8°C° 0 mm 1 m/s 703 mmHg 88%
08:00 +9°C° 0 mm 1 m/s 703 mmHg 85%
09:00 +10°C° 0 mm 1 m/s 703 mmHg 82%
10:00 +11°C° 0 mm 1 m/s 703 mmHg 75%
11:00 +13°C° 0 mm 1 m/s 703 mmHg 68%
12:00 +14°C° 0 mm 1 m/s 703 mmHg 61%
13:00 +14°C° 0 mm 1 m/s 703 mmHg 61%
14:00 +14°C° 0 mm 1 m/s 703 mmHg 60%
15:00 +14°C° 0 mm 1 m/s 703 mmHg 60%
16:00 +13°C° 0 mm 1 m/s 703 mmHg 66%
17:00 +11°C° 0 mm 1 m/s 704 mmHg 73%
18:00 +10°C° 0 mm 1 m/s 704 mmHg 79%
19:00 +10°C° 0 mm 1 m/s 704 mmHg 80%
20:00 +9°C° 0 mm 1 m/s 705 mmHg 81%
21:00 +9°C° 0 mm 1 m/s 705 mmHg 83%
22:00 +9°C° 0 mm 1 m/s 705 mmHg 83%
23:00 +9°C° 0 mm 1 m/s 705 mmHg 84%

Après-demain, 29 Novembre, Dimanche

Heure Température Précipitation Vent Pression Humidité
00:00 +8°C° 0 mm 1 m/s 706 mmHg 85%
01:00 +8°C° 0 mm 1 m/s 706 mmHg 85%
02:00 +8°C° 0 mm 1 m/s 706 mmHg 85%
03:00 +8°C° 0 mm 1 m/s 706 mmHg 86%
04:00 +8°C° 0 mm 1 m/s 706 mmHg 86%
05:00 +7°C° 0 mm 0 m/s 706 mmHg 85%
06:00 +6°C° 0 mm 0 m/s 706 mmHg 85%
07:00 +7°C° 0 mm 0 m/s 707 mmHg 82%
08:00 +8°C° 0 mm 0 m/s 707 mmHg 78%
09:00 +9°C° 0 mm 0 m/s 708 mmHg 75%
10:00 +11°C° 0 mm 0 m/s 708 mmHg 70%
11:00 +12°C° 0 mm 0 m/s 708 mmHg 65%
12:00 +14°C° 0 mm 0 m/s 709 mmHg 60%
13:00 +14°C° 0 mm 0 m/s 709 mmHg 60%
14:00 +15°C° 0 mm 1 m/s 708 mmHg 60%
15:00 +15°C° 0 mm 1 m/s 708 mmHg 60%
16:00 +12°C° 0 mm 0 m/s 708 mmHg 67%
17:00 +10°C° 0 mm 0 m/s 708 mmHg 75%
18:00 +9°C° 0 mm 0 m/s 708 mmHg 82%
19:00 +8°C° 0 mm 0 m/s 709 mmHg 83%
20:00 +8°C° 0 mm 0 m/s 709 mmHg 85%
21:00 +9°C° 0 mm 1 m/s 709 mmHg 86%
22:00 +9°C° 0 mm 1 m/s 709 mmHg 86%
23:00 +9°C° 0 mm 1 m/s 710 mmHg 86%

30 Novembre, Lundi

Heure Température Précipitation Vent Pression Humidité
00:00 +8°C° 0 mm 1 m/s 710 mmHg 87%
01:00 +8°C° 0 mm 1 m/s 710 mmHg 87%
02:00 +8°C° 0 mm 1 m/s 710 mmHg 87%
03:00 +8°C° 0 mm 1 m/s 710 mmHg 87%
04:00 +8°C° 0 mm 1 m/s 710 mmHg 86%
05:00 +8°C° 0 mm 1 m/s 710 mmHg 86%
06:00 +7°C° 0 mm 1 m/s 710 mmHg 86%
07:00 +8°C° 0 mm 1 m/s 711 mmHg 83%
08:00 +9°C° 0 mm 1 m/s 711 mmHg 80%
09:00 +9°C° 0 mm 1 m/s 711 mmHg 77%
10:00 +11°C° 0 mm 1 m/s 712 mmHg 70%
11:00 +12°C° 0 mm 1 m/s 712 mmHg 64%
12:00 +13°C° 0 mm 1 m/s 712 mmHg 57%
13:00 +13°C° 0 mm 1 m/s 712 mmHg 57%
14:00 +13°C° 0 mm 1 m/s 712 mmHg 57%
15:00 +13°C° 0 mm 1 m/s 712 mmHg 56%
16:00 +12°C° 0 mm 1 m/s 712 mmHg 65%
17:00 +10°C° 0 mm 1 m/s 712 mmHg 74%
18:00 +8°C° 0 mm 1 m/s 712 mmHg 82%
19:00 +8°C° 0 mm 1 m/s 712 mmHg 84%
20:00 +7°C° 0 mm 1 m/s 712 mmHg 86%
21:00 +7°C° 0 mm 1 m/s 713 mmHg 88%
22:00 +7°C° 0 mm 1 m/s 713 mmHg 88%
23:00 +6°C° 0 mm 1 m/s 713 mmHg 88%

1 Décembre, Mardi

Heure Température Précipitation Vent Pression Humidité
00:00 +6°C° 0 mm 1 m/s 713 mmHg 87%
01:00 +6°C° 0 mm 1 m/s 713 mmHg 86%
02:00 +5°C° 0 mm 1 m/s 712 mmHg 85%
03:00 +5°C° 0 mm 1 m/s 712 mmHg 84%
04:00 +4°C° 0 mm 0 m/s 712 mmHg 82%
05:00 +4°C° 0 mm 0 m/s 712 mmHg 81%
06:00 +3°C° 0 mm 0 m/s 712 mmHg 80%
07:00 +4°C° 0 mm 0 m/s 712 mmHg 76%
08:00 +5°C° 0 mm 0 m/s 713 mmHg 72%
09:00 +6°C° 0 mm 0 m/s 713 mmHg 68%
10:00 +8°C° 0 mm 0 m/s 713 mmHg 64%
11:00 +9°C° 0 mm 0 m/s 713 mmHg 60%
12:00 +11°C° 0 mm 0 m/s 713 mmHg 56%
13:00 +11°C° 0 mm 0 m/s 712 mmHg 57%
14:00 +11°C° 0 mm 0 m/s 712 mmHg 58%
15:00 +11°C° 0 mm 0 m/s 712 mmHg 59%
16:00 +9°C° 0 mm 0 m/s 712 mmHg 65%
17:00 +8°C° 0 mm 0 m/s 712 mmHg 72%
18:00 +6°C° 0 mm 0 m/s 712 mmHg 78%
19:00 +6°C° 0 mm 0 m/s 712 mmHg 80%
20:00 +5°C° 0 mm 0 m/s 712 mmHg 83%
21:00 +5°C° 0 mm 0 m/s 712 mmHg 85%
22:00 +5°C° 0 mm 0 m/s 712 mmHg 85%
23:00 +4°C° 0 mm 0 m/s 712 mmHg 86%

2 Décembre, Mercredi

Heure Température Précipitation Vent Pression Humidité
00:00 +4°C° 0 mm 0 m/s 711 mmHg 87%
01:00 +4°C° 0 mm 0 m/s 711 mmHg 87%
02:00 +4°C° 0 mm 0 m/s 711 mmHg 88%
03:00 +4°C° 0 mm 0 m/s 711 mmHg 88%
04:00 +3°C° 0 mm 0 m/s 710 mmHg 89%
05:00 +3°C° 0 mm 0 m/s 710 mmHg 89%
06:00 +3°C° 0 mm 0 m/s 710 mmHg 89%
07:00 +4°C° 0 mm 0 m/s 710 mmHg 86%
08:00 +5°C° 0 mm 0 m/s 710 mmHg 84%
09:00 +6°C° 0 mm 0 m/s 710 mmHg 81%
10:00 +7°C° 0 mm 0 m/s 710 mmHg 76%
11:00 +9°C° 0 mm 1 m/s 710 mmHg 72%
12:00 +11°C° 0 mm 1 m/s 709 mmHg 67%
13:00 +11°C° 0 mm 1 m/s 709 mmHg 67%
14:00 +11°C° 0 mm 1 m/s 709 mmHg 67%
15:00 +11°C° 0 mm 1 m/s 708 mmHg 68%
16:00 +10°C° 0 mm 1 m/s 708 mmHg 74%
17:00 +7°C° 0 mm 0 m/s 708 mmHg 81%
18:00 +6°C° 0 mm 0 m/s 707 mmHg 88%
19:00 +6°C° 0 mm 0 m/s 707 mmHg 89%
20:00 +5°C° 0 mm 0 m/s 707 mmHg 89%
21:00 +5°C° 0 mm 0 m/s 707 mmHg 90%
22:00 +5°C° 0 mm 0 m/s 707 mmHg 91%
23:00 +5°C° 0 mm 0 m/s 707 mmHg 91%
Voir plus

Nous avons besoin de votre consentement

Meteoprog et ses fournisseurs de services peuvent stocker et accéder à des données personnelles telles que des cookies, des identifiants d'appareils ou d'autres technologies similaires sur votre appareil et traiter ces données pour personnaliser le contenu et les publicités, ainsi que pour fournir des fonctionnalités de médias sociaux et analyser le trafic.

  • Stocker et/ou accéder à des informations sur votre appareil

    Des cookies, des identifiants d'appareils ou d'autres informations peuvent être stockés ou accessibles sur votre appareil aux fins indiquées ci-dessus.

  • Annonces et contenus personnalisés, mesure des annonces et des contenus, connaissance de l'audience et développement de produits

    Les annonces et le contenu peuvent être personnalisés en fonction d'un profil. D'autres données peuvent être ajoutées pour mieux personnaliser les annonces et le contenu. Les performances des publicités et du contenu peuvent être mesurées. Il est possible d'obtenir des informations sur le public qui a vu les publicités et le contenu. Ces données peuvent être utilisées pour développer ou améliorer l'expérience de l'utilisateur, les systèmes et les logiciels.

En cliquant sur "J'accepte", vous autorisez l'utilisation de cookies, des identifiants d'appareils, des balises web ou d'autres technologies similaires. Vos paramètres peuvent être modifiés dans le navigateur de votre appareil.

Dans certains cas, des intérêts légitimes peuvent être invoqués plutôt qu'un consentement. Vous pouvez en savoir plus à ce sujet dans notre Politique de confidentialité et de cookies.